CAPE
0 0 0 0 0 0 0 0 0 0 0 14 203 198 100 144 60 41 106 589 555 748 738 805 1091 1024 1027 1052 1048 997 1010 956 905 883 900 842 838 893 902 863 855 773 708 615 611 614 599 440 112
0 0 0 0 0 0 0 0 0 0 0 86 76 42 64 15 15 91 218 243 555 592 803 757 686 618 511 412 324 283 238 144 70 29 15 6 7 46 599 722 681 648 588 548 572 617 632 531 496
0 0 0 0 0 0 0 0 0 0 0 75 0 6 2 0 19 1 3 36 227 82 79 62 54 31 11 3 0 0 0 0 0 0 0 0 0 0 0 573 585 514 472 467 488 473 406 341 292
0 0 0 0 0 0 0 0 0 0 0 0 3 0 0 0 6 0 0 0 64 0 0 0 0 0 0 0 0 0 0 0 0 0 0 0 0 0 0 116 1 0 1 93 327 342 351 392 368
0 0 0 0 0 0 0 0 0 0 0 0 2 0 0 0 0 0 0 0 1 1 0 0 0 0 0 0 0 0 0 0 0 0 0 0 0 0 0 0 0 0 0 0 0 0 0 0 115
0 0 0 0 0 0 0 0 0 0 0 0 0 0 0 0 0 0 0 0 0 0 0 0 0 0 0 0 0 0 0 0 0 0 0 0 0 0 0 0 0 0 0 0 0 0 0 0 0
0 0 0 0 0 0 0 0 0 0 0 0 0 0 0 0 0 0 0 0 0 0 0 0 0 0 0 0 0 0 0 0 0 0 0 0 0 0 0 0 0 0 0 0 0 0 0 0 0
0 3 0 0 0 0 0 0 0 0 0 0 0 0 0 0 0 0 0 0 0 0 0 0 0 0 0 0 0 0 0 0 0 0 0 0 0 0 0 0 0 0 0 0 0 0 0 0 0
3 0 0 0 0 0 0 0 0 0 0 0 0 0 0 0 0 0 0 0 0 0 0 0 0 0 0 0 0 0 0 0 0 0 0 0 0 0 0 0 0 0 0 0 0 0 0 0 0
10 0 0 0 0 0 0 0 0 0 0 0 0 0 0 0 0 0 0 0 0 0 0 0 0 0 0 0 0 0 0 0 0 0 0 0 0 0 0 0 0 0 0 0 0 0 0 0 0
5 0 0 0 0 0 0 0 0 0 0 0 0 0 0 0 0 0 0 0 0 0 0 0 0 0 0 0 0 0 0 0 0 0 0 0 0 0 0 0 0 0 0 0 0 0 0 0 0
18 10 0 0 0 0 0 0 0 0 0 0 0 0 0 0 0 0 0 0 0 0 0 0 0 0 0 0 0 0 0 0 0 0 0 0 0 0 0 0 0 0 0 0 0 0 0 0 0
28 17 0 0 0 0 0 0 0 0 0 0 0 0 0 0 0 0 0 0 0 0 0 0 0 0 0 0 0 0 0 0 0 0 0 0 0 0 0 0 0 0 0 0 0 0 0 0 0
9 7 0 0 0 0 0 0 0 0 0 0 0 0 0 0 0 0 0 0 0 0 0 0 0 0 0 0 0 0 0 0 0 0 0 0 0 0 0 0 0 0 0 0 0 0 0 0 0
67 9 0 0 0 0 0 0 0 0 0 0 0 0 0 0 0 0 0 0 0 0 0 0 0 0 0 0 0 0 0 0 0 0 0 0 0 0 0 0 0 0 0 0 0 0 0 0 2
37 19 0 0 0 0 0 0 0 0 0 0 0 0 0 0 0 0 0 0 0 0 0 0 0 0 0 0 0 0 0 0 0 0 0 0 0 0 0 0 0 0 0 0 0 0 0 1 3
43 44 0 0 0 0 0 0 0 0 0 0 0 0 0 0 0 0 0 0 0 0 0 0 0 0 0 0 0 0 0 0 0 0 0 0 0 0 0 0 0 0 0 0 0 0 0 0 5
17 44 0 0 0 0 0 0 0 0 0 0 0 0 0 0 0 0 0 0 0 0 0 0 0 0 0 0 0 0 0 0 0 0 0 0 0 0 0 0 0 0 0 0 0 0 0 0 1
0 0 0 0 0 0 0 0 0 0 0 0 0 0 0 0 0 0 0 0 0 0 0 0 0 0 0 0 0 0 0 0 0 0 0 0 0 0 0 0 0 0 0 0 0 0 0 0 0
6 3 0 0 0 0 0 0 0 0 0 0 0 0 0 0 0 0 0 0 0 0 0 0 0 0 0 0 0 0 0 0 0 0 0 0 0 0 0 0 0 0 0 0 0 0 0 0 0
17 44 0 0 0 0 0 0 0 0 0 0 0 0 0 0 0 0 0 0 0 0 0 0 0 0 0 0 0 0 0 0 0 0 0 0 0 0 0 0 0 0 0 0 0 0 0 0 0
18 0 0 0 0 0 0 16 0 0 0 0 0 0 0 0 0 0 0 0 0 0 0 0 0 0 0 0 0 0 0 0 0 0 0 0 0 0 0 0 0 0 0 0 0 0 0 0 0
8 0 0 0 4 0 0 6 0 0 0 0 0 0 0 0 0 0 0 0 0 0 0 0 0 0 0 0 0 0 0 0 0 0 0 0 0 0 0 0 0 0 0 0 0 0 0 0 0
0 0 0 0 0 73 0 0 0 0 0 0 0 0 0 0 0 0 0 0 0 0 0 0 0 0 0 0 0 0 0 0 0 0 0 0 0 0 0 0 0 0 0 0 0 0 0 0 0
0 9 57 89 261 54 0 0 0 0 0 0 0 0 0 0 0 0 0 0 0 0 0 0 0 0 0 0 0 0 0 0 0 0 0 0 0 0 0 0 0 0 0 0 0 0 0 0 0
0 1 25 6 6 0 0 0 0 0 0 0 0 0 0 0 0 0 0 0 0 0 0 0 0 0 0 0 0 0 0 0 0 0 0 0 0 0 0 0 0 0 0 0 0 0 0 0 0
0 1 0 0 0 0 0 0 0 0 0 0 0 0 0 0 0 0 0 0 0 0 0 0 0 0 0 0 0 0 0 0 0 0 0 0 0 0 0 0 0 0 0 0 0 0 0 0 0
0 0 1 0 0 0 0 0 0 0 0 0 0 0 0 0 0 0 0 0 0 0 0 0 0 0 0 0 0 0 0 0 0 0 0 0 0 0 0 0 0 0 0 0 0 0 0 0 0
0 0 0 0 0 0 0 0 0 0 0 0 0 0 0 0 0 0 0 0 0 0 0 0 0 0 0 0 0 0 0 0 0 0 0 0 0 0 0 0 0 0 0 0 0 0 0 0 0
0 0 0 0 0 0 0 0 0 0 0 0 0 0 0 0 0 0 0 0 0 0 0 0 0 0 0 0 0 0 0 0 0 0 0 0 0 0 0 0 0 0 0 0 0 0 0 0 0
CIN
0 0 0 0 0 0 0 0 0 0 0 -345 -224 -193 -174 -172 -213 -214 -347 -95 -58 -7 0 0 -1 -0 0 0 0 0 0 0 -0 -0 -0 -1 -0 0 0 0 0 0 0 0 0 0 0 -0 -47
0 0 0 0 0 0 0 0 0 0 0 -369 -391 -364 -265 -385 -517 -401 -269 -209 -74 -41 -8 -8 -2 -3 -10 -36 -74 -98 -124 -204 -276 -217 -185 -193 -169 -88 -3 0 0 0 0 0 0 0 0 0 0
0 0 0 0 0 0 0 0 0 0 0 -342 0 -141 -240 -18 -502 0 0 -371 -193 -277 -270 -274 -284 -357 -170 -128 0 0 0 0 0 0 0 0 0 0 0 0 0 0 0 0 0 0 0 -1 -4
0 0 0 0 0 0 0 0 0 0 0 0 -31 -261 0 0 -492 0 0 0 -297 0 0 0 0 0 0 0 0 0 0 0 0 0 0 0 0 0 0 -36 -1 0 -1 -39 -2 -1 -2 -1 -0
0 0 0 0 0 0 0 0 0 0 0 0 -23 0 0 0 0 0 0 0 0 0 0 0 0 0 0 0 0 0 0 0 0 0 0 0 0 0 0 0 0 0 0 0 0 0 0 0 -41
0 0 0 0 0 0 0 0 0 0 0 0 0 0 0 0 0 0 0 0 0 0 0 0 0 0 0 0 0 0 0 0 0 0 0 0 0 0 0 0 0 0 0 0 0 0 0 0 0
0 0 0 0 0 0 0 0 0 0 0 0 0 0 0 0 0 0 0 0 0 0 0 0 0 0 0 0 0 0 0 0 0 0 0 0 0 0 0 0 0 0 0 0 0 0 0 0 0
0 0 0 0 0 0 0 0 0 0 0 0 0 0 0 0 0 0 0 0 0 0 0 0 0 0 0 0 0 0 0 0 0 0 0 0 0 0 0 0 0 0 0 0 0 0 0 0 0
0 0 0 0 0 0 0 0 0 0 0 0 0 0 0 0 0 0 0 0 0 0 0 0 0 0 0 0 0 0 0 0 0 0 0 0 0 0 0 0 0 0 0 0 0 0 0 0 0
0 0 0 0 0 0 0 0 0 0 0 0 0 0 0 0 0 0 0 0 0 0 0 0 0 0 0 0 0 0 0 0 0 0 0 0 0 0 0 0 0 0 0 0 0 0 0 0 0
0 0 0 0 0 0 0 0 0 0 0 0 0 0 0 0 0 0 0 0 0 0 0 0 0 0 0 0 0 0 0 0 0 0 0 0 0 0 0 0 0 0 0 0 0 0 0 0 0
0 0 0 0 0 0 0 0 0 0 0 0 0 0 0 0 0 0 0 0 0 0 0 0 0 0 0 0 0 0 0 0 0 0 0 0 0 0 0 0 0 0 0 0 0 0 0 0 0
0 0 0 0 0 0 0 0 0 0 0 0 0 0 0 0 0 0 0 0 0 0 0 0 0 0 0 0 0 0 0 0 0 0 0 0 0 0 0 0 0 0 0 0 0 0 0 0 0
-0 0 0 0 0 0 0 0 0 0 0 0 0 0 0 0 0 0 0 0 0 0 0 0 0 0 0 0 0 0 0 0 0 0 0 0 0 0 0 0 0 0 0 0 0 0 0 0 0
0 0 0 0 0 0 0 0 0 0 0 0 0 0 0 0 0 0 0 0 0 0 0 0 0 0 0 0 0 0 0 0 0 0 0 0 0 0 0 0 0 0 0 0 0 0 0 0 0
-2 0 0 0 0 0 0 0 0 0 0 0 0 0 0 0 0 0 0 0 0 0 0 0 0 0 0 0 0 0 0 0 0 0 0 0 0 0 0 0 0 0 0 0 0 0 0 0 0
-0 0 0 0 0 0 0 0 0 0 0 0 0 0 0 0 0 0 0 0 0 0 0 0 0 0 0 0 0 0 0 0 0 0 0 0 0 0 0 0 0 0 0 0 0 0 0 0 0
0 0 0 0 0 0 0 0 0 0 0 0 0 0 0 0 0 0 0 0 0 0 0 0 0 0 0 0 0 0 0 0 0 0 0 0 0 0 0 0 0 0 0 0 0 0 0 0 0
0 0 0 0 0 0 0 0 0 0 0 0 0 0 0 0 0 0 0 0 0 0 0 0 0 0 0 0 0 0 0 0 0 0 0 0 0 0 0 0 0 0 0 0 0 0 0 0 0
-1 -2 0 0 0 0 0 0 0 0 0 0 0 0 0 0 0 0 0 0 0 0 0 0 0 0 0 0 0 0 0 0 0 0 0 0 0 0 0 0 0 0 0 0 0 0 0 0 0
-4 0 0 0 0 0 0 0 0 0 0 0 0 0 0 0 0 0 0 0 0 0 0 0 0 0 0 0 0 0 0 0 0 0 0 0 0 0 0 0 0 0 0 0 0 0 0 0 0
-4 -0 0 0 0 0 0 -0 0 0 0 0 0 0 0 0 0 0 0 0 0 0 0 0 0 0 0 0 0 0 0 0 0 0 0 0 0 0 0 0 0 0 0 0 0 0 0 0 0
-8 0 0 0 -5 0 0 -2 0 0 0 0 0 0 0 0 0 0 0 0 0 0 0 0 0 0 0 0 0 0 0 0 0 0 0 0 0 0 0 0 0 0 0 0 0 0 0 0 0
0 0 0 0 0 -1 0 0 0 0 0 0 0 0 0 0 0 0 0 0 0 0 0 0 0 0 0 0 0 0 0 0 0 0 0 0 0 0 0 0 0 0 0 0 0 0 0 0 0
0 -12 -7 -2 -4 -0 0 0 0 0 0 0 0 0 0 0 0 0 0 0 0 0 0 0 0 0 0 0 0 0 0 0 0 0 0 0 0 0 0 0 0 0 0 0 0 0 0 0 0
-4 -5 -8 -25 -12 0 0 0 0 0 0 0 0 0 0 0 0 0 0 0 0 0 0 0 0 0 0 0 0 0 0 0 0 0 0 0 0 0 0 0 0 0 0 0 0 0 0 0 0
0 -2 0 0 0 0 0 0 0 0 0 0 0 0 0 0 0 0 0 0 0 0 0 0 0 0 0 0 0 0 0 0 0 0 0 0 0 0 0 0 0 0 0 0 0 0 0 0 0
0 0 -13 0 -1 0 0 0 0 0 0 0 0 0 0 0 0 0 0 0 0 0 0 0 0 0 0 0 0 0 0 0 0 0 0 0 0 0 0 0 0 0 0 0 0 0 0 0 0
0 0 0 0 0 0 0 0 0 0 0 0 0 0 0 0 0 0 0 0 0 0 0 0 0 0 0 0 0 0 0 0 0 0 0 0 0 0 0 0 0 0 0 0 0 0 0 0 0
0 0 0 0 0 0 0 0 0 0 0 0 0 0 0 0 0 0 0 0 0 0 0 0 0 0 0 0 0 0 0 0 0 0 0 0 0 0 0 0 0 0 0 0 0 0 0 0 0
Wind_Speed
3 3 3 5 7 7 15 8 4 7 6 3 11 7 10 6 3 2 3 9 11 10 11 12 11 12 11 11 11 10 9 10 10 9 9 8 9 7 7 5 4 5 5 6 5 5 5 5 5
2 3 3 2 9 12 14 16 11 9 4 10 11 8 7 6 5 9 8 7 9 11 11 12 14 13 12 11 11 11 11 10 10 10 10 10 9 9 9 8 5 5 4 5 5 5 6 5 5
2 2 4 5 10 16 12 11 15 8 12 12 8 3 3 7 10 7 6 9 10 11 10 11 13 11 11 11 11 10 10 10 10 10 9 9 9 8 7 8 7 6 5 5 5 5 5 5 5
4 4 4 10 18 19 15 3 10 15 7 7 5 7 6 6 10 8 8 11 13 11 11 12 11 11 11 11 10 10 10 10 10 10 9 9 9 10 8 8 8 8 7 7 7 6 6 5 5
4 3 11 14 20 16 15 2 12 16 13 12 11 8 7 4 9 13 9 11 12 11 11 11 11 11 11 11 11 10 11 11 10 10 9 9 8 8 8 8 8 8 7 6 6 5 6 6 5
6 5 11 19 21 19 10 8 13 13 12 11 7 14 8 8 13 9 10 11 9 10 8 9 11 12 11 11 11 11 11 10 10 10 9 9 9 9 9 9 9 9 9 7 6 7 8 6 5
12 9 17 16 19 21 13 12 14 15 12 12 10 11 7 13 14 12 11 11 10 8 8 7 8 9 12 11 11 11 11 10 10 9 9 9 9 9 8 8 9 9 9 9 8 8 9 8 8
9 5 19 14 19 21 12 14 9 14 12 6 5 9 9 18 15 14 12 11 10 8 7 7 7 6 6 8 10 11 10 10 9 9 8 7 3 5 7 6 10 9 10 10 10 9 8 8 8
6 10 16 21 17 20 11 12 5 3 11 4 4 2 6 22 17 14 13 10 9 7 7 6 6 6 6 6 6 7 7 6 4 4 5 2 4 4 3 8 9 10 9 9 9 8 7 4 4
13 14 19 10 8 10 13 15 15 10 12 6 7 8 21 21 18 16 14 11 9 9 7 6 6 6 5 4 4 5 4 5 5 5 6 4 5 5 4 4 6 7 7 6 6 6 4 5 4
14 18 15 5 9 6 13 12 11 10 13 12 17 20 22 22 18 16 13 11 10 9 6 6 6 5 5 4 2 2 3 3 3 6 6 5 3 4 4 3 3 4 4 4 4 3 4 5 4
14 19 12 9 2 4 11 9 10 16 4 5 15 21 22 22 18 16 14 12 11 8 7 6 6 5 5 3 3 3 3 3 3 5 6 5 3 4 4 4 4 4 4 5 4 4 4 4 4
21 11 20 9 6 8 6 12 11 10 2 6 19 22 23 19 17 13 12 11 10 9 7 6 5 5 4 4 3 3 3 4 3 4 5 4 4 3 3 4 4 4 4 5 5 4 5 4 4
16 17 14 13 7 6 11 9 8 5 5 13 19 22 21 20 17 14 12 12 11 9 8 7 6 5 4 4 3 3 3 3 3 4 5 5 3 3 4 4 4 4 5 4 4 4 4 3 3
11 22 7 15 7 7 9 9 12 6 12 15 17 19 20 19 17 14 12 12 11 9 9 7 6 5 4 4 3 3 3 2 3 3 5 5 5 5 5 4 4 5 5 6 5 4 4 3 4
12 19 15 16 9 5 13 17 7 11 15 16 17 18 17 18 16 13 12 11 10 10 9 8 5 5 5 4 2 3 2 2 3 3 3 5 5 5 4 4 4 5 5 5 4 5 4 4 5
15 13 22 10 10 5 12 13 9 11 13 15 16 17 16 15 14 12 11 10 10 10 9 8 6 5 5 4 3 3 3 1 2 2 2 4 5 5 4 4 4 5 4 5 4 4 4 3 4
18 18 20 13 10 10 15 5 12 13 14 16 16 16 15 15 15 12 12 10 10 9 8 8 6 6 5 3 3 2 2 1 1 1 2 4 4 4 3 3 4 5 4 4 4 5 4 3 2
19 19 20 7 5 12 15 9 13 13 12 14 15 15 15 14 12 11 11 10 10 9 9 9 7 7 5 3 2 2 0 0 1 1 3 3 3 3 3 3 4 4 4 4 5 4 4 3 2
16 17 16 7 6 6 12 11 10 12 13 15 16 15 14 13 11 11 11 11 11 10 10 8 7 6 4 2 1 1 0 0 2 1 2 1 1 2 2 3 3 3 2 4 5 4 2 0 2
15 17 14 14 10 4 15 8 11 10 7 9 11 12 13 14 14 12 12 13 11 11 11 9 8 7 5 4 3 2 1 2 3 3 3 2 2 2 1 1 1 1 2 2 3 3 4 2 1
12 8 13 17 17 10 4 11 12 13 12 12 13 13 13 12 11 11 13 13 13 12 9 9 8 7 5 6 4 4 2 3 1 1 1 2 4 3 3 2 2 1 1 1 1 1 2 3 3
5 9 10 16 13 11 8 3 12 10 15 16 15 15 13 12 12 12 13 12 10 10 10 8 8 7 6 5 5 3 4 3 3 3 4 5 4 5 5 5 4 4 2 3 3 3 3 3 4
12 11 6 4 5 9 6 4 9 11 15 17 15 15 13 11 11 8 7 8 8 8 8 8 9 7 6 6 6 6 5 5 4 4 4 4 3 4 6 6 5 5 5 5 4 4 5 4 4
4 13 3 4 3 6 0 5 5 9 5 4 12 12 10 11 10 8 8 8 8 10 10 8 8 8 7 7 7 6 7 6 6 5 4 5 4 5 6 6 6 5 6 5 5 5 6 6 5
7 4 3 5 8 6 1 6 5 3 2 2 3 7 9 10 9 8 7 7 7 8 9 8 8 7 7 7 8 7 8 5 5 5 5 5 5 5 5 5 6 7 7 6 6 6 6 8 7
5 5 3 5 2 4 3 3 5 4 4 5 8 10 11 11 10 10 8 7 7 7 6 6 7 6 6 6 6 7 7 7 6 6 5 5 6 5 6 6 7 8 8 8 8 7 9 9 9
3 6 4 1 5 6 4 3 3 12 13 10 11 12 12 10 10 9 8 7 6 6 5 5 5 4 4 5 6 5 5 5 5 5 6 6 6 6 7 8 9 9 9 10 10 9 10 10 9
4 3 4 1 3 4 6 6 2 5 13 14 12 12 12 12 10 9 8 7 7 6 6 6 5 5 3 3 2 3 2 3 4 5 5 6 6 7 8 8 9 9 10 10 10 11 12 13 13
1 0 1 2 4 1 4 4 1 1 9 12 13 12 11 11 11 9 9 8 7 7 6 5 5 5 4 4 4 4 2 0 2 3 4 5 6 6 7 7 8 9 10 10 11 13 12 14 15
Wind_Direction
254 297 280 224 213 233 231 232 237 182 192 136 153 177 174 69 154 46 142 112 132 123 126 121 112 109 106 102 94 90 81 75 68 62 57 47 39 31 26 18 25 34 29 20 16 15 17 15 9
259 220 216 223 237 207 223 227 211 196 107 140 131 143 165 104 87 118 121 115 121 102 99 102 91 90 86 85 86 78 75 71 64 57 49 41 34 26 26 29 31 24 20 11 359 358 354 344 348
232 259 214 213 225 218 225 204 215 158 155 166 136 352 114 110 118 117 104 127 121 101 98 89 92 97 95 92 88 85 81 74 68 59 50 43 36 31 32 38 36 29 19 12 10 11 13 8 355
192 193 217 236 217 218 227 207 186 152 166 194 185 136 108 350 132 123 126 142 127 124 110 99 96 92 91 89 86 83 79 72 69 60 50 40 36 33 32 34 32 25 21 25 28 27 23 18 7
198 247 219 227 226 217 218 242 182 178 162 172 194 145 112 100 116 119 142 134 126 116 113 99 86 84 85 85 79 84 79 73 64 52 45 39 34 31 29 26 22 17 12 10 17 14 8 358 355
201 267 221 218 213 212 226 189 183 189 169 152 172 139 126 138 139 130 143 121 116 112 105 100 85 79 78 79 78 79 78 70 62 54 46 39 34 31 28 26 23 20 17 15 9 11 1 349 356
239 217 227 236 214 211 212 190 189 186 178 173 152 141 118 164 141 145 129 120 113 108 108 104 97 93 83 76 78 77 70 63 55 47 41 37 36 34 34 29 23 23 24 27 25 23 24 35 37
225 252 222 220 211 216 187 180 210 185 172 96 170 174 164 165 153 136 131 122 114 109 105 99 98 94 90 99 78 74 64 54 49 42 35 23 47 32 38 8 34 32 33 36 35 33 33 39 42
223 230 225 209 223 209 175 178 172 126 146 169 143 113 133 145 148 140 134 133 126 117 110 107 106 103 101 93 93 106 79 70 56 55 42 274 17 18 26 50 30 34 33 33 32 29 25 357 96
214 223 223 237 229 236 183 203 163 170 157 161 151 108 135 148 157 152 154 150 144 137 119 114 109 106 110 102 95 82 73 49 41 35 23 20 26 29 4 64 41 47 16 37 19 15 339 279 336
223 234 211 228 246 273 206 206 173 188 191 180 182 153 156 159 163 160 157 154 147 133 125 120 115 106 109 96 96 83 66 50 44 39 24 30 24 8 23 25 29 18 8 12 355 1 9 356 345
236 223 236 234 271 249 203 180 196 198 80 166 164 158 158 164 166 161 155 151 147 149 132 125 115 115 100 106 81 80 68 55 39 45 29 12 20 24 17 25 18 18 7 3 3 360 360 352 343
217 215 224 244 267 247 199 196 192 189 349 175 140 156 162 164 162 159 154 149 146 147 142 129 128 119 111 103 102 77 70 61 49 44 37 11 24 28 23 31 21 20 6 8 6 7 356 357 359
202 219 225 225 248 225 202 188 190 154 143 145 152 159 164 165 163 155 160 156 158 149 154 142 138 124 126 109 106 83 75 70 41 39 26 27 22 23 29 30 29 23 13 7 4 4 356 3 12
218 202 223 215 212 214 196 190 204 126 152 154 158 159 163 164 162 167 167 163 160 159 154 164 142 138 132 118 120 95 83 61 43 32 38 31 27 29 19 31 23 15 11 0 7 11 9 37 52
187 200 198 192 190 204 205 198 157 157 160 162 163 160 165 165 169 166 170 162 164 158 163 165 148 151 134 118 117 101 96 61 51 24 36 35 30 21 24 30 33 10 13 5 9 13 22 45 61
192 183 198 169 203 174 208 184 151 164 172 162 166 165 166 165 172 175 173 166 169 170 161 164 161 158 132 128 137 128 124 104 50 23 36 41 37 26 27 30 32 16 16 20 2 32 11 64 80
183 189 191 187 178 201 190 165 150 168 174 167 167 167 172 175 182 175 176 167 178 169 169 162 166 161 150 142 148 158 163 135 24 7 57 43 49 35 32 40 32 14 19 25 18 19 32 34 43
177 180 180 150 158 182 194 166 168 168 176 167 173 176 181 184 175 178 177 170 177 174 179 177 175 174 173 173 183 203 219 110 229 225 79 59 50 42 36 38 35 24 27 31 22 16 355 54 332
198 178 173 134 155 202 170 163 162 179 187 181 177 182 185 181 182 182 183 182 188 184 192 179 189 182 180 172 164 70 32 66 313 218 158 104 53 43 59 39 39 23 14 40 33 27 313 330 350
200 186 170 151 141 97 149 150 180 191 195 193 197 192 191 191 187 186 188 194 192 197 192 186 189 185 179 174 157 148 166 220 219 197 188 184 211 178 114 73 24 48 7 34 27 15 345 324 296
181 197 166 153 161 162 246 172 199 187 201 208 193 197 196 192 196 189 194 198 202 202 189 187 184 186 180 184 185 217 275 277 230 225 191 214 218 208 203 221 233 259 314 334 348 10 307 286 281
131 156 160 167 161 152 188 201 146 184 206 209 204 202 202 193 196 199 199 203 204 193 191 186 185 184 189 179 211 214 240 252 253 248 254 238 221 223 223 231 233 242 244 248 256 242 250 262 279
145 120 100 122 149 190 135 266 173 176 204 204 200 199 196 190 190 201 204 196 199 190 185 184 189 191 190 193 205 218 241 246 249 243 251 245 238 231 229 229 237 241 244 244 246 244 249 260 260
215 143 123 158 196 161 325 234 56 165 158 191 190 186 180 174 173 173 176 182 184 186 185 185 190 199 197 204 213 221 237 242 252 260 262 264 254 243 239 230 236 243 245 251 253 252 252 248 249
141 164 172 136 169 127 42 214 124 107 93 115 131 145 147 153 154 149 150 153 155 167 176 179 191 208 204 211 218 224 233 241 249 256 257 261 265 269 269 261 258 260 257 252 245 249 247 245 242
167 174 355 96 71 171 154 225 193 156 153 154 142 146 144 148 147 141 140 135 134 143 146 180 194 208 213 219 225 228 230 237 250 255 260 271 276 278 274 265 262 256 253 248 245 246 248 241 244
310 135 143 38 156 170 162 244 200 191 184 167 164 154 150 143 147 143 140 129 115 111 127 160 191 208 219 230 231 241 243 250 263 269 269 271 275 268 266 260 255 257 254 251 246 251 254 254 250
156 142 66 52 339 197 155 207 75 175 180 173 170 161 157 156 150 148 136 123 116 119 115 104 99 106 142 210 228 240 254 264 265 265 276 280 285 279 275 275 274 270 267 261 256 257 259 256 256
329 87 147 322 147 21 308 115 79 144 186 174 163 162 159 155 152 148 136 132 130 120 107 102 102 105 87 77 84 85 97 82 297 317 321 315 307 305 292 289 282 279 277 274 269 268 262 260 260